Rogers City, MI

10:53 PM EDT on September 19, 2017 (GMT -0400)
Presque Isle County

Weather History for KPZQ - October, 2013

Change the Weather History Date:

Monday, October 28, 2013

  Actual Average (KAPN) Record (KAPN)
Temperature  
Mean Temperature 34 °F -  
Max Temperature 44 °F 52 °F 75 °F (1989)
Min Temperature 25 °F 32 °F 12 °F (1933)
Degree Days  
Heating Degree Days 30    
Moisture  
Dew Point 28 °F    
Average Humidity 73    
Maximum Humidity 90    
Minimum Humidity 60    
Precipitation  
Precipitation 0.00 in - - ()
Sea Level Pressure  
Sea Level Pressure 30.33 in    
Wind  
Wind Speed 8 mph (North)    
Max Wind Speed 15 mph    
Max Gust Speed 24 mph    
Visibility 10 miles    
Events      
Averages and records for this station are not official NWS values.
T = Trace of Precipitation, MM = Missing Value Source: NWS Daily Summary

Daily Weather History Graph

Daily Weather History Graph

Search for Another Location

Airport or City:

Trip Planner

Search our weather history database for the weather conditions in past years. The results will help you decide how hot, cold, wet, or windy it might be!

Date:

Astronomy

Oct. 28, 2013 Rise Set
Actual Time 8:09 AM EDT 6:27 PM EDT
Civil Twilight 7:38 AM EDT 6:58 PM EDT
Nautical Twilight 7:03 AM EDT 7:33 PM EDT
Astronomical Twilight 6:29 AM EDT 8:07 PM EDT
Moon 1:44 AM EDT (10/28) 3:24 PM EDT (10/28)
Length of Visible Light 11h 19m
Length of Day
10h 18m
Waning Crescent, 34% of the Moon is Illuminated
Oct 28
Waning Crescent
Nov 3
New
Nov 10
First Quarter
Nov 17
Full
Nov 25
Last Quarter

Hourly Weather History & Observations

Time (EDT) Temp. Windchill Dew Point Humidity Pressure Visibility Wind Dir Wind Speed Gust Speed Precip Events Conditions
12:15 AM 43.9 °F 40.5 °F 37.4 °F 78% 29.97 in 10.0 mi West 5.8 mph - N/A   Overcast
12:34 AM 44.8 °F 39.4 °F 36.1 °F 72% 29.98 in 10.0 mi NW 10.4 mph 16.1 mph N/A   Overcast
12:55 AM 44.8 °F 41.0 °F 35.6 °F 70% 29.99 in 10.0 mi NW 6.9 mph 16.1 mph N/A   Overcast
1:15 AM 44.6 °F 39.7 °F 36.5 °F 73% 30.00 in 10.0 mi NW 9.2 mph 17.3 mph N/A   Overcast
1:34 AM 44.2 °F 37.6 °F 36.5 °F 74% 30.02 in 10.0 mi NW 13.8 mph 23.0 mph N/A   Overcast
1:55 AM 43.7 °F 36.6 °F 35.8 °F 74% 30.03 in 10.0 mi NW 15.0 mph 24.2 mph N/A   Overcast
2:15 AM 43.3 °F 36.1 °F 36.3 °F 76% 30.05 in 10.0 mi NNW 15.0 mph 21.9 mph N/A   Overcast
2:34 AM 43.0 °F 35.7 °F 36.3 °F 77% 30.06 in 10.0 mi NNW 15.0 mph 24.2 mph N/A   Overcast
2:55 AM 41.9 °F 35.4 °F 34.9 °F 76% 30.08 in 10.0 mi NNW 11.5 mph 17.3 mph N/A   Overcast
3:15 AM 41.9 °F 34.6 °F 35.1 °F 77% 30.10 in 10.0 mi NNW 13.8 mph 17.3 mph N/A   Overcast
3:35 AM 41.2 °F 33.4 °F 33.3 °F 73% 30.12 in 10.0 mi North 15.0 mph 21.9 mph N/A   Overcast
3:55 AM 40.3 °F 33.4 °F 32.7 °F 74% 30.13 in 10.0 mi North 11.5 mph 16.1 mph N/A   Mostly Cloudy
4:15 AM 40.5 °F 32.8 °F 32.7 °F 74% 30.14 in 10.0 mi North 13.8 mph 19.6 mph N/A   Overcast
4:35 AM 40.1 °F 33.2 °F 32.0 °F 73% 30.15 in 10.0 mi North 11.5 mph 18.4 mph N/A   Overcast
4:55 AM 39.2 °F 30.8 °F 31.6 °F 74% 30.17 in 10.0 mi North 15.0 mph 20.7 mph N/A   Overcast
5:14 AM 39.2 °F 31.6 °F 31.1 °F 73% 30.18 in 10.0 mi North 12.7 mph 19.6 mph N/A   Overcast
5:35 AM 38.5 °F 31.1 °F 30.7 °F 74% 30.20 in 10.0 mi North 11.5 mph 18.4 mph N/A   Overcast
5:55 AM 37.8 °F 30.7 °F 30.4 °F 75% 30.22 in 10.0 mi North 10.4 mph 20.7 mph N/A   Mostly Cloudy
6:14 AM 37.6 °F 31.0 °F 30.0 °F 74% 30.23 in 10.0 mi North 9.2 mph 17.3 mph N/A   Mostly Cloudy
6:35 AM 37.4 °F 29.3 °F 29.7 °F 74% 30.25 in 10.0 mi NE 12.7 mph 17.3 mph N/A   Overcast
6:55 AM 37.4 °F 29.8 °F 30.2 °F 75% 30.26 in 10.0 mi North 11.5 mph 18.4 mph N/A   Overcast
7:14 AM 36.5 °F 29.2 °F 29.1 °F 75% 30.27 in 10.0 mi NNE 10.4 mph 17.3 mph N/A   Overcast
7:35 AM 36.1 °F 28.7 °F 27.9 °F 72% 30.28 in 10.0 mi NNE 10.4 mph - N/A   Overcast
7:55 AM 36.3 °F 30.1 °F 28.4 °F 73% 30.30 in 10.0 mi North 8.1 mph - N/A   Overcast
8:15 AM 36.3 °F 29.5 °F 27.1 °F 69% 30.31 in 10.0 mi NNE 9.2 mph 18.4 mph N/A   Overcast
8:35 AM 35.4 °F 27.8 °F 25.2 °F 66% 30.32 in 10.0 mi NE 10.4 mph 16.1 mph N/A   Mostly Cloudy
8:54 AM 35.6 °F 27.5 °F 25.9 °F 68% 30.33 in 10.0 mi NNE 11.5 mph 17.3 mph N/A   Scattered Clouds
9:15 AM 35.4 °F 27.8 °F 26.6 °F 70% 30.35 in 10.0 mi NNE 10.4 mph 18.4 mph N/A   Mostly Cloudy
9:35 AM 34.9 °F 27.1 °F 27.5 °F 74% 30.36 in 10.0 mi NE 10.4 mph 16.1 mph N/A   Mostly Cloudy
9:54 AM 34.7 °F 27.5 °F 26.8 °F 73% 30.37 in 10.0 mi North 9.2 mph 18.4 mph N/A   Overcast
10:15 AM 34.9 °F 29.0 °F 25.9 °F 70% 30.38 in 10.0 mi NNE 6.9 mph 16.1 mph N/A   Overcast
10:34 AM 35.6 °F 28.0 °F 27.0 °F 71% 30.39 in 10.0 mi NNE 10.4 mph 18.4 mph N/A   Overcast
10:55 AM 35.4 °F 28.4 °F 27.3 °F 72% 30.40 in 10.0 mi NE 9.2 mph - N/A   Overcast
11:14 AM 35.6 °F 29.2 °F 27.1 °F 71% 30.41 in 10.0 mi NNE 8.1 mph - N/A   Overcast
11:35 AM 36.7 °F 32.0 °F 27.5 °F 69% 30.41 in 10.0 mi NNE 5.8 mph - N/A   Overcast
11:55 AM 36.1 °F 31.4 °F 27.3 °F 70% 30.42 in 10.0 mi NNE 5.8 mph - N/A   Overcast
12:15 PM 37.4 °F 32.8 °F 27.7 °F 68% 30.43 in 10.0 mi NNE 5.8 mph - N/A   Overcast
12:35 PM 37.9 °F 33.5 °F 27.5 °F 66% 30.43 in 10.0 mi NNE 5.8 mph - N/A   Overcast
12:55 PM 36.5 °F 32.7 °F 27.5 °F 70% 30.44 in 10.0 mi North 4.6 mph - N/A   Overcast
1:15 PM 36.7 °F 32.0 °F 27.0 °F 68% 30.44 in 10.0 mi NNE 5.8 mph - N/A   Overcast
1:35 PM 36.5 °F 33.9 °F 26.4 °F 67% 30.44 in 10.0 mi NE 3.5 mph - N/A   Overcast
1:54 PM 37.9 °F 34.4 °F 26.4 °F 63% 30.44 in 10.0 mi NNW 4.6 mph - N/A   Overcast
2:15 PM 37.4 °F 32.8 °F 25.9 °F 63% 30.44 in 10.0 mi North 5.8 mph - N/A   Mostly Cloudy
2:35 PM 37.4 °F 32.8 °F 25.5 °F 62% 30.44 in 10.0 mi North 5.8 mph - N/A   Scattered Clouds
2:54 PM 37.6 °F 32.3 °F 25.3 °F 61% 30.44 in 10.0 mi North 6.9 mph - N/A   Scattered Clouds
3:15 PM 37.6 °F 34.0 °F 25.3 °F 61% 30.44 in 10.0 mi NNE 4.6 mph - N/A   Scattered Clouds
3:34 PM 36.7 °F - 24.4 °F 61% 30.44 in 10.0 mi Calm Calm - N/A   Scattered Clouds
3:55 PM 37.6 °F 34.0 °F 24.6 °F 60% 30.44 in 10.0 mi North 4.6 mph - N/A   Scattered Clouds
4:14 PM 36.5 °F 31.0 °F 24.8 °F 63% 30.44 in 10.0 mi North 6.9 mph - N/A   Clear
4:35 PM 36.5 °F - 24.1 °F 61% 30.44 in 10.0 mi Calm Calm - N/A   Clear
4:55 PM 36.3 °F - 24.3 °F 62% 30.44 in 10.0 mi Calm Calm - N/A   Clear
5:15 PM 36.3 °F 31.6 °F 24.8 °F 63% 30.44 in 10.0 mi NNW 5.8 mph - N/A   Clear
5:35 PM 35.6 °F 31.7 °F 24.8 °F 65% 30.44 in 10.0 mi NW 4.6 mph - N/A   Clear
5:54 PM 35.1 °F 32.2 °F 23.7 °F 63% 30.44 in 10.0 mi North 3.5 mph - N/A   Clear
6:15 PM 34.5 °F - 24.8 °F 68% 30.44 in 10.0 mi Calm Calm - N/A   Clear
6:35 PM 33.4 °F - 25.0 °F 71% 30.44 in 10.0 mi Calm Calm - N/A   Clear
6:54 PM 32.0 °F - 25.2 °F 76% 30.44 in 10.0 mi Calm Calm - N/A   Clear
7:15 PM 30.2 °F - 24.4 °F 79% 30.45 in 10.0 mi Calm Calm - N/A   Clear
7:35 PM 28.2 °F - 24.3 °F 85% 30.45 in 10.0 mi Calm Calm - N/A   Clear
7:54 PM 26.8 °F - 23.4 °F 87% 30.45 in 10.0 mi Calm Calm - N/A   Clear
8:15 PM 25.9 °F - 22.8 °F 88% 30.45 in 10.0 mi Calm Calm - N/A   Clear
8:34 PM 27.5 °F - 24.4 °F 88% 30.45 in 10.0 mi Calm Calm - N/A   Clear
8:54 PM 26.2 °F - 22.6 °F 86% 30.46 in 10.0 mi Calm Calm - N/A   Clear
9:15 PM 26.6 °F 22.6 °F 23.9 °F 90% 30.45 in 10.0 mi WSW 3.5 mph - N/A   Clear
9:35 PM 27.1 °F 23.2 °F 23.9 °F 88% 30.45 in 10.0 mi WSW 3.5 mph - N/A   Clear
9:54 PM 25.5 °F - 22.8 °F 89% 30.45 in 10.0 mi Calm Calm - N/A   Scattered Clouds
10:15 PM 26.4 °F 22.4 °F 23.7 °F 90% 30.46 in 10.0 mi West 3.5 mph - N/A   Scattered Clouds
10:34 PM 27.7 °F - 24.6 °F 88% 30.46 in 10.0 mi Calm Calm - N/A   Scattered Clouds
10:55 PM 27.1 °F - 23.5 °F 86% 30.46 in 10.0 mi Calm Calm - N/A   Scattered Clouds
11:15 PM 27.7 °F - 24.6 °F 88% 30.47 in 10.0 mi Calm Calm - N/A   Scattered Clouds
11:34 PM 26.6 °F - 23.0 °F 86% 30.47 in 10.0 mi Calm Calm - N/A   Scattered Clouds
11:55 PM 26.8 °F 20.2 °F 23.9 °F 89% 30.46 in 10.0 mi WSW 5.8 mph - N/A   Scattered Clouds